Wright-Patt AFB, OH

3:31 AM EST on January 20, 2018 (GMT -0500)
Wright-Patterson Air Force Base

Weather History for KFFO - November, 2012

Change the Weather History Date:

Sunday, November 4, 2012

  Actual Average Record
Temperature  
Mean Temperature 36 °F -  
Max Temperature 44 °F 55 °F 78 °F (2003)
Min Temperature 27 °F 36 °F 23 °F (2006)
Degree Days  
Heating Degree Days 30    
Moisture  
Dew Point 30 °F    
Average Humidity 74    
Maximum Humidity 93    
Minimum Humidity 59    
Precipitation  
Precipitation 0.00 in - - ()
Sea Level Pressure  
Sea Level Pressure 30.17 in    
Wind  
Wind Speed 4 mph (NW)    
Max Wind Speed 9 mph    
Max Gust Speed -    
Visibility 10 miles    
Events Fog    
Averages and records for this station are not official NWS values.
T = Trace of Precipitation, MM = Missing Value Source: NWS Daily Summary

Daily Weather History Graph

Daily Weather History Graph

Search for Another Location

Airport or City:

Trip Planner

Search our weather history database for the weather conditions in past years. The results will help you decide how hot, cold, wet, or windy it might be!

Date:

Astronomy

Nov. 04, 2012 Rise Set
Actual Time 7:08 AM EST 5:30 PM EST
Civil Twilight 6:40 AM EST 5:58 PM EST
Nautical Twilight 6:08 AM EST 6:30 PM EST
Astronomical Twilight 5:36 AM EST 7:01 PM EST
Moon 10:07 PM EST (11/4) 11:51 AM EST (11/4)
Length of Visible Light 11h 17m
Length of Day
10h 21m
Waning Gibbous, 72% of the Moon is Illuminated
Nov 4
Waning Gibbous
Nov 6
Last Quarter
Nov 13
New
Nov 20
First Quarter
Nov 28
Full

Hourly Weather History & Observations

Time (EST) Temp. Windchill Dew Point Humidity Pressure Visibility Wind Dir Wind Speed Gust Speed Precip Events Conditions
12:55 AM 40.3 °F 37.1 °F 32.2 °F 73% 30.14 in 10.0 mi North 4.6 mph - N/A   Overcast
1:55 AM 39.4 °F 35.2 °F 32.0 °F 75% 30.15 in 10.0 mi North 5.8 mph - N/A   Overcast
1:55 AM 37.8 °F 31.8 °F 31.3 °F 77% 30.16 in 10.0 mi North 8.1 mph - N/A   Partly Cloudy
2:55 AM 33.6 °F 29.4 °F 29.7 °F 85% 30.15 in 10.0 mi NNE 4.6 mph - N/A   Scattered Clouds
3:55 AM 31.8 °F - 28.2 °F 87% 30.14 in 10.0 mi Calm Calm - N/A   Clear
4:55 AM 32.9 °F - 29.3 °F 87% 30.16 in 10.0 mi Calm Calm - N/A   Clear
5:55 AM 30.2 °F - 27.5 °F 90% 30.17 in 10.0 mi Calm Calm - N/A   Clear
6:55 AM 30.4 °F - 27.9 °F 90% 30.17 in 7.0 mi Calm Calm - N/A Fog Shallow Fog
7:55 AM 27.3 °F - 25.5 °F 93% 30.19 in 7.0 mi Calm Calm - N/A Fog Shallow Fog
8:55 AM 34.2 °F - 30.0 °F 85% 30.19 in 10.0 mi Calm Calm - N/A   Scattered Clouds
9:55 AM 38.7 °F 35.2 °F 32.0 °F 77% 30.20 in 10.0 mi NW 4.6 mph - N/A   Mostly Cloudy
10:55 AM 41.5 °F 38.6 °F 31.6 °F 68% 30.18 in 10.0 mi NE 4.6 mph - N/A   Mostly Cloudy
11:55 AM 43.0 °F 41.3 °F 31.6 °F 64% 30.18 in 10.0 mi NW 3.5 mph - N/A   Overcast
12:55 PM 43.3 °F 41.7 °F 31.6 °F 63% 30.17 in 10.0 mi West 3.5 mph - N/A   Overcast
1:55 PM 43.9 °F 40.5 °F 30.6 °F 59% 30.16 in 10.0 mi NW 5.8 mph - N/A   Overcast
2:16 PM 42.8 °F 39.3 °F 32.0 °F 66% 30.16 in 10.0 mi Variable 5.8 mph - N/A   Overcast
2:47 PM 44.6 °F 42.2 °F 32.0 °F 61% 30.16 in 10.0 mi Variable 4.6 mph - N/A   Mostly Cloudy
2:55 PM 44.6 °F 41.4 °F 32.2 °F 62% 30.16 in 10.0 mi WNW 5.8 mph - N/A   Mostly Cloudy
3:55 PM 43.2 °F 39.0 °F 31.6 °F 64% 30.16 in 10.0 mi WNW 6.9 mph - N/A   Mostly Cloudy
4:37 PM 42.8 °F 38.0 °F 30.2 °F 61% 30.16 in 10.0 mi West 8.1 mph - N/A   Mostly Cloudy
4:55 PM 42.1 °F 37.1 °F 30.9 °F 65% 30.16 in 10.0 mi West 8.1 mph - N/A   Mostly Cloudy
5:55 PM 41.0 °F 36.4 °F 31.1 °F 68% 30.17 in 10.0 mi WNW 6.9 mph - N/A   Overcast
6:55 PM 39.2 °F 33.0 °F 31.3 °F 73% 30.18 in 10.0 mi NW 9.2 mph - N/A   Overcast
7:55 PM 38.7 °F 32.9 °F 30.6 °F 73% 30.19 in 10.0 mi NNW 8.1 mph - N/A   Overcast
8:55 PM 38.1 °F 32.9 °F 30.0 °F 73% 30.19 in 10.0 mi NW 6.9 mph - N/A   Overcast
9:55 PM 37.0 °F 31.6 °F 29.8 °F 75% 30.18 in 10.0 mi North 6.9 mph - N/A   Mostly Cloudy
10:55 PM 34.5 °F 31.6 °F 28.8 °F 79% 30.18 in 10.0 mi North 3.5 mph - N/A   Partly Cloudy